Погода в Крестище

Украина / Харьковская область     49°33′00″N   35°31′01″E
темп.,
°C
ветер,
м/с
пор.,
м/с
влажн.,
%
обл.,
%
осадки,
мм/ч
давл.,
гПа
погр.,
м
2 июля, сб
сб200:00+17св511630 0.0 1017396
03:00+12св36770 0.0 101993
06:00+11ссв39760 0.0 1021347
09:00+16ссв67500 0.0 1021895
12:00+21ссв67400 0.0 10211315
15:00+23с67394 0.0 10201731
18:00+22ссв57430 0.0 10201630
21:00+16с34680 0.0 102058
3 июля, вс
вс300:00+14с34810 0.0 102148
03:00+13ссз33880 0.0 102032
06:00+14ссз36825 0.0 1020140
09:00+21ссз46540 0.0 1020762
12:00+25ссз55395 0.0 10191664
15:00+26с453717 0.0 10182051
18:00+26с454039 0.0 10171984
21:00+20сз33654 0.0 101833
4 июля, пн
пн400:00+17ссз34750 0.0 101854
03:00+16ссз34800 0.0 101745
06:00+17сз37775 0.0 1018157
09:00+24ссз4655100 0.0 1017586
12:00+29ссз564370 0.0 10171882
15:00+26ссз2353100 0.0 101659
18:00+24зюз1153100 0.1 101621
21:00+22ссв336690 0.1 101622
5 июля, вт
вт500:00+19всв337356 0.0 101725
03:00+18св118125 0.0 101711
06:00+19юв117557 0.0 101712
09:00+26юв21535 0.0 1017537
12:00+30всв12390 0.0 10171997
15:00+31ссв223596 0.0 10162586
18:00+29всв33390 0.0 1016599
21:00+23вюв335420 0.0 101629
6 июля, ср
ср600:00+21юв47525 0.0 1017100
03:00+19ююв485499 0.0 1017135
06:00+20ююв48555 0.0 1017144
09:00+27ю56384 0.0 1017567
12:00+32ююв43300 0.0 10162204
15:00+33ююв44254 0.0 10152738
18:00+32ююв55286 0.0 10141604
21:00+26ююв4103929 0.0 1014155